Location: The Saddle
(36.8333°N, 80.3417°W)
Time: 01:54:35
(UTC-05:00)

A-11 Canister half - Pass Details

Date: 18 December 2023
Orbit: 1526 x 1682 km, 47.3° (Epoch: 01 March)

Event Time Altitude Azimuth Distance (km) Brightness Sun altitude
Rises 20:30:52 0° 299° (WNW) 4,935 12.3 -39.8°
Reaches altitude 10° 20:34:07 10° 302° (WNW) 3,947 11.6 -40.5°
Enters shadow 20:41:49 52° 334° (NNW) 2,017 9.5 -42.0°
